Date,TemperatureHighF,TemperatureAvgF,TemperatureLowF,DewpointHighF,DewpointAvgF,DewpointLowF,HumidityHigh,HumidityAvg,HumidityLow,PressureMaxIn,PressureMinIn,WindSpeedMaxMPH,WindSpeedAvgMPH,GustSpeedMaxMPH,PrecipitationSumIn
2013-1-1,31,25,16,27,19,12,92,80,63,30.18,30.07,14,1,14,0.01
2013-1-2,23,16,10,18,12,6,91,84,75,30.27,30.15,11,2,0,0.00
2013-1-3,28,21,11,24,16,5,88,82,76,30.27,30.17,18,5,18,0.00
2013-1-4,27,23,16,22,18,12,90,83,73,30.28,30.18,23,8,23,0.00
2013-1-5,33,26,16,30,23,14,100,88,75,30.32,30.08,18,3,18,0.01
2013-1-6,34,31,27,32,28,24,96,89,80,30.33,29.96,22,5,22,0.00
2013-1-7,33,28,20,27,24,19,94,85,76,30.44,30.20,22,4,22,0.00
2013-1-8,37,30,22,29,25,20,92,84,72,30.30,30.20,11,2,12,0.01
2013-1-9,46,39,30,35,31,25,88,75,60,30.51,30.11,24,5,24,0.00
2013-1-10,38,32,23,34,28,21,95,86,76,30.57,30.13,22,6,22,0.08
2013-1-11,57,47,35,53,45,34,100,93,82,30.14,29.78,27,7,27,0.21
2013-1-12,60,52,48,53,49,45,98,90,75,29.95,29.77,18,3,18,0.22
2013-1-13,48,36,25,47,35,23,98,97,93,30.13,29.75,18,4,18,0.45
2013-1-14,25,21,16,23,18,14,93,88,81,30.49,30.13,20,2,20,0.00
2013-1-15,29,21,13,23,18,11,95,87,74,30.48,30.17,11,1,0,0.00
2013-1-16,36,28,20,28,22,18,94,80,54,30.17,29.91,21,5,21,0.00
2013-1-17,41,30,18,31,24,13,93,77,56,30.37,30.04,23,4,23,0.01
2013-1-18,36,28,20,26,20,14,81,73,61,30.47,30.06,26,6,26,0.00
2013-1-19,48,41,34,37,32,26,78,70,61,30.06,29.72,31,10,31,0.00
2013-1-20,41,22,17,34,14,9,82,71,57,30.25,29.72,35,6,35,0.00
2013-1-21,18,13,6,13,6,1,87,71,54,30.22,30.07,29,8,29,0.00
2013-1-22,12,6,0,5,1,-3,88,80,68,30.38,30.21,19,4,19,0.00
2013-1-23,17,12,5,15,5,-1,92,76,60,30.37,30.12,26,4,26,0.00
2013-1-24,23,13,4,14,6,0,89,74,53,30.67,30.19,20,3,20,0.00
2013-1-25,22,18,15,20,14,7,92,83,69,30.52,30.05,16,5,14,0.00
2013-1-26,32,23,17,23,18,14,100,83,59,30.48,30.10,15,2,15,0.00
2013-1-27,31,24,16,30,20,12,95,85,76,30.49,30.13,24,7,24,0.00
2013-1-28,49,42,31,49,42,30,100,99,95,30.14,29.92,21,5,21,0.07
2013-1-29,56,50,41,56,50,41,100,100,98,29.99,29.64,24,6,24,0.48
2013-1-30,52,43,28,50,42,25,100,95,85,29.41,29.16,30,9,30,0.34
2013-1-31,28,19,11,26,14,7,92,81,69,30.02,29.40,29,11,29,0.00
2013-2-1,14,9,5,8,4,0,92,79,70,30.36,30.02,23,8,23,0.00
2013-2-2,23,17,11,21,15,7,94,90,82,30.30,30.00,16,4,16,0.00
2013-2-3,20,15,10,17,12,8,92,88,82,30.09,29.96,18,3,18,0.00
2013-2-4,23,19,16,21,18,13,95,93,84,30.10,29.89,10,2,0,0.00
2013-2-5,28,21,9,27,20,7,96,93,80,30.04,29.86,14,2,14,0.01
2013-2-6,31,26,20,26,20,16,95,80,66,30.31,30.03,15,3,15,0.01
2013-2-7,38,30,23,31,25,19,96,83,74,30.27,29.81,17,7,12,0.07
2013-2-8,35,29,20,31,26,18,98,88,68,30.38,29.80,24,6,24,0.02
2013-2-9,29,22,13,23,18,11,94,85,74,30.48,30.27,15,4,14,0.00
2013-2-10,46,32,23,45,29,21,99,87,78,30.27,29.68,21,8,21,0.06
2013-2-11,47,36,30,46,31,24,98,80,73,29.97,29.59,39,12,39,0.00
2013-2-12,37,30,27,27,24,23,85,79,67,30.12,29.96,22,4,22,0.00
2013-2-13,45,32,24,31,26,21,92,79,57,29.97,29.76,14,2,14,0.00
2013-2-14,40,35,32,35,31,24,94,85,72,29.94,29.72,32,7,32,0.00
2013-2-15,34,28,20,25,21,16,89,77,57,30.18,29.93,17,3,17,0.00
2013-2-16,24,19,10,20,15,6,92,83,66,30.15,30.06,20,2,20,0.00
2013-2-17,31,19,8,17,12,5,92,74,51,30.27,30.14,11,1,0,0.01
2013-2-18,52,35,21,42,28,14,92,75,63,30.22,29.57,29,10,29,0.11
2013-2-19,44,23,14,42,20,10,95,86,77,30.07,29.47,33,12,33,0.06
2013-2-20,24,18,14,20,15,11,92,85,75,30.34,30.07,21,6,21,0.00
2013-2-21,26,22,19,20,17,15,92,82,78,30.42,30.20,25,7,25,0.00
2013-2-22,33,26,20,33,25,16,99,95,84,30.20,29.90,30,9,30,0.00
2013-2-23,31,27,24,28,22,19,88,81,73,29.99,29.92,18,6,18,0.00
2013-2-24,39,28,22,28,23,19,90,80,63,30.20,29.96,16,3,16,0.01
2013-2-25,40,30,18,30,25,17,97,82,66,30.25,30.06,16,3,16,0.00
2013-2-26,33,31,29,32,28,24,98,90,78,30.08,29.47,24,4,24,0.01
2013-2-27,33,32,30,33,32,30,99,98,97,29.62,29.46,15,2,15,0.24
2013-2-28,38,33,31,35,32,30,99,95,86,29.98,29.60,17,5,17,0.05
2013-3-1,34,29,24,31,24,20,97,84,70,30.15,29.97,14,2,14,0.01
2013-3-2,34,26,23,23,20,18,86,77,61,30.14,30.09,19,4,19,0.00
2013-3-3,37,26,18,22,18,14,86,73,52,30.12,30.05,23,3,23,0.00
2013-3-4,34,25,13,23,18,11,95,76,54,30.19,30.09,11,1,0,0.00
2013-3-5,31,28,27,28,25,20,97,86,71,30.13,29.77,22,8,22,0.00
2013-3-6,34,29,25,31,27,23,97,90,84,30.26,29.83,17,4,17,0.20
2013-3-7,42,33,29,32,28,24,95,81,57,30.43,30.25,14,2,13,0.04
2013-3-8,43,31,18,29,23,16,95,74,49,30.53,30.42,10,1,0,0.00
2013-3-9,41,35,27,36,30,23,92,82,73,30.43,30.01,21,6,21,0.00
2013-3-10,58,49,40,46,40,35,84,73,62,30.02,29.76,24,7,24,0.02
2013-3-11,55,46,34,49,42,32,99,89,62,29.77,29.51,27,7,27,0.24
2013-3-12,34,32,29,32,28,25,95,87,73,29.97,29.75,22,8,22,0.00
2013-3-13,32,27,21,27,22,16,94,84,69,30.31,29.95,21,4,21,0.05
2013-3-14,41,30,20,27,21,14,85,70,45,30.34,30.15,14,2,14,0.00
2013-3-15,46,37,30,39,33,25,97,86,70,30.15,29.80,17,3,17,0.03
2013-3-16,40,33,30,39,31,26,99,93,82,30.09,29.69,18,4,18,0.01
2013-3-17,35,29,26,26,22,19,86,76,60,30.26,30.08,26,7,26,0.00
2013-3-18,34,30,26,34,28,21,100,94,82,30.14,29.59,29,10,29,0.02
2013-3-19,33,26,20,27,18,14,87,72,52,30.04,29.73,31,11,31,0.00
2013-3-20,29,24,17,20,15,10,84,69,52,30.04,29.98,23,5,23,0.00
2013-3-21,32,23,15,25,18,12,92,82,66,30.04,29.96,19,3,19,0.00
2013-3-22,44,31,20,26,21,16,89,69,45,30.07,30.01,18,2,18,0.00
2013-3-24,35,32,28,27,25,21,88,76,65,29.94,29.60,27,9,27,0.00
2013-3-25,39,32,27,32,28,25,95,85,70,29.97,29.56,29,7,29,0.08
2013-3-26,43,35,30,34,30,27,92,82,64,30.20,29.97,18,2,18,0.00
2013-3-27,48,37,29,34,28,22,95,72,45,30.29,30.19,20,2,20,0.00
2013-3-28,55,39,26,31,26,21,83,62,38,30.34,30.26,16,2,16,0.00
2013-3-29,57,40,23,31,25,20,91,59,33,30.33,30.22,14,1,14,0.00
2013-3-30,54,40,23,35,28,19,91,62,41,30.25,29.94,18,2,18,0.00
2013-3-31,61,47,37,46,19,-100,97,70,42,29.94,29.65,25,3,25,0.00
2013-4-1,44,34,24,31,21,15,89,60,37,30.14,29.76,23,5,23,0.00
2013-4-2,47,31,19,23,17,12,88,59,32,30.30,30.14,25,3,25,0.00
2013-4-3,52,39,22,20,16,13,74,42,24,30.45,30.30,20,3,20,0.00
2013-4-4,58,40,27,26,21,14,67,47,28,30.36,29.97,13,3,13,0.00
2013-4-5,58,45,34,33,25,19,78,49,24,30.18,29.95,26,3,26,0.00
2013-4-6,59,45,33,39,29,24,75,55,39,30.20,29.75,34,12,34,0.00
2013-4-7,64,54,42,47,42,34,84,64,45,29.98,29.65,36,6,36,0.00
2013-4-8,71,51,40,59,44,34,98,79,56,29.98,29.71,34,7,34,0.19
2013-4-9,76,64,45,62,55,42,90,73,58,30.03,29.82,24,7,24,0.00
2013-4-10,63,48,42,55,46,42,99,95,76,29.92,29.80,23,4,23,0.60
2013-4-11,42,40,37,42,39,37,100,99,97,29.93,29.59,30,12,30,1.10
2013-4-12,42,38,37,39,36,32,100,91,78,29.83,29.56,23,7,23,0.16
2013-4-13,41,38,34,34,32,30,95,81,67,30.00,29.83,24,6,24,0.00
2013-4-14,55,44,35,46,38,32,91,81,71,30.09,29.86,24,6,24,0.00
2013-4-15,66,55,40,58,50,38,94,83,72,29.93,29.84,24,5,24,0.00
2013-4-16,60,52,44,56,46,38,98,81,54,30.21,29.85,20,3,20,0.26
2013-4-17,55,48,43,45,40,36,96,74,66,30.27,29.96,25,8,25,0.43
2013-4-18,74,57,43,67,55,42,100,95,76,29.96,29.53,38,9,38,1.19
2013-4-19,59,40,35,59,37,30,100,88,76,29.83,29.42,32,12,32,0.77
2013-4-20,46,36,28,31,26,19,94,69,45,30.45,29.82,26,4,26,0.01
2013-4-21,49,37,23,35,28,19,93,71,52,30.60,30.44,25,6,25,0.00
2013-4-22,61,47,32,40,34,29,91,64,38,30.44,30.14,31,5,31,0.00
2013-4-23,67,52,42,55,45,37,99,78,52,30.15,29.78,21,4,21,0.96
2013-4-24,46,40,35,46,36,26,99,88,60,30.17,29.74,24,5,24,0.29
2013-4-25,56,42,34,42,34,28,91,74,50,30.37,30.14,24,4,24,0.02
2013-4-26,59,46,29,41,35,28,96,69,47,30.45,30.33,18,2,18,0.00
2013-4-27,67,54,37,45,40,35,94,60,37,30.35,30.05,22,4,22,0.00
2013-4-28,58,54,48,58,51,44,100,92,66,30.05,29.80,13,3,0,0.45
2013-4-29,68,59,52,59,55,52,100,87,64,29.93,29.84,17,0,17,0.01
2013-4-30,75,64,52,64,57,51,95,80,67,30.01,29.90,45,5,45,0.00
2013-5-1,80,69,52,61,57,50,95,68,48,30.16,30.00,39,5,39,0.00
2013-5-2,78,67,57,60,57,54,91,70,50,30.17,30.06,63,9,63,0.00
2013-5-3,76,67,58,62,54,46,88,65,40,30.07,29.94,56,10,56,0.00
2013-5-4,70,62,55,50,46,42,73,57,39,30.02,29.96,46,10,46,0.00
2013-5-5,71,61,52,50,46,42,78,59,41,30.02,29.95,22,6,22,0.00
2013-5-6,76,64,53,52,48,43,71,57,40,30.01,29.92,28,3,28,0.00
2013-5-7,75,64,49,57,51,44,84,65,50,30.01,29.94,19,3,19,0.00
2013-5-8,86,67,51,56,53,49,97,65,33,29.99,29.91,21,1,21,0.00
2013-5-9,84,67,53,58,54,46,93,66,28,29.95,29.86,13,1,13,0.01
2013-5-10,70,60,46,61,56,43,98,87,69,29.87,29.73,27,5,27,0.08
2013-5-11,55,47,39,50,42,34,94,86,66,29.97,29.79,25,3,25,0.01
2013-5-12,50,42,35,34,32,28,90,69,50,30.13,29.95,22,3,22,0.01
2013-5-13,61,46,32,35,30,27,94,58,31,30.19,30.09,16,1,16,0.00
2013-5-14,84,64,46,60,46,30,67,53,38,30.10,29.69,36,3,36,0.00
2013-5-15,85,75,64,63,57,51,80,55,33,29.76,29.61,26,4,26,0.01
2013-5-16,88,70,50,53,49,46,92,53,27,29.94,29.76,10,0,0,0.00
2013-5-17,82,66,53,55,47,41,65,52,37,30.08,29.93,21,6,21,0.00
2013-5-18,80,67,55,61,52,42,76,60,50,30.09,29.96,22,4,22,0.00
2013-5-19,85,71,56,66,58,49,82,65,50,29.99,29.81,16,3,16,0.00
2013-5-20,87,76,66,72,67,63,93,75,55,29.87,29.76,14,1,14,0.00
2013-5-21,85,75,66,68,64,62,90,70,49,29.79,29.67,0,0,0,0.01
2013-5-22,77,69,63,65,63,61,97,83,59,29.72,29.61,0,0,0,0.14
2013-5-23,64,57,48,62,54,44,96,91,83,30.15,29.69,0,0,0,0.04
2013-5-24,67,52,38,44,40,35,94,66,39,30.35,30.15,0,0,0,0.00
2013-5-25,71,56,40,48,42,38,99,62,32,30.37,30.23,0,0,0,0.00
2013-5-26,68,59,44,45,40,35,87,53,34,30.32,30.18,0,0,0,0.00
2013-5-27,60,54,49,54,47,35,100,81,39,30.20,29.93,0,0,0,0.20
2013-5-28,78,69,55,71,65,54,100,89,75,29.93,29.79,0,0,0,0.24
2013-5-29,84,74,64,71,66,62,95,76,59,29.96,29.82,16,2,16,0.07
2013-5-30,84,75,67,72,67,62,89,76,60,30.01,29.89,28,2,28,0.01
2013-5-31,74,72,65,69,67,63,96,86,78,29.94,29.82,18,2,18,0.07
2013-6-1,74,68,63,67,64,62,100,89,76,29.87,29.68,20,3,20,1.85
2013-6-2,70,63,48,65,57,45,94,81,69,29.98,29.67,16,2,16,0.00
2013-6-3,72,58,45,48,45,40,91,64,37,30.08,29.97,13,1,13,0.00
2013-6-4,75,61,46,53,49,44,93,67,44,30.17,30.08,12,2,12,0.00
2013-6-5,76,64,55,57,50,44,82,61,46,30.12,29.92,14,4,14,0.00
2013-6-6,78,64,56,58,52,46,78,65,48,29.93,29.78,13,2,14,0.00
2013-6-7,75,63,53,58,54,51,95,74,53,29.89,29.83,13,1,13,0.00
2013-6-8,76,63,48,59,53,48,100,74,49,30.01,29.88,13,0,13,0.00
2013-6-9,85,70,59,68,60,55,94,73,48,30.04,29.85,20,3,20,0.03
2013-6-10,77,68,65,69,66,64,100,93,73,29.85,29.71,19,2,19,0.40
2013-6-11,84,72,61,70,65,61,98,80,58,29.91,29.78,13,1,13,0.00
2013-6-12,85,74,66,76,70,64,98,86,70,29.86,29.60,16,1,16,0.33
2013-6-13,83,70,59,66,61,55,100,76,43,29.92,29.48,23,2,23,0.24
2013-6-14,82,68,56,62,58,55,99,71,45,30.05,29.92,11,1,0,0.00
2013-6-15,76,66,57,67,61,56,97,86,62,30.07,29.90,13,1,13,0.06
2013-6-16,82,72,64,70,66,62,99,83,64,29.90,29.83,13,1,13,0.15
2013-6-17,90,76,66,72,65,59,99,71,41,29.90,29.82,10,0,0,0.00
2013-6-18,80,69,61,64,60,50,96,75,55,30.02,29.81,13,1,13,0.00
2013-6-19,78,64,50,56,51,44,82,63,43,30.14,30.01,13,1,13,0.00
2013-6-20,86,71,53,66,58,50,94,67,41,30.18,30.10,9,1,0,0.00
2013-6-21,86,76,63,66,63,60,89,64,46,30.16,29.99,17,1,17,0.00
2013-6-22,88,76,69,77,70,63,97,80,67,30.06,29.94,16,0,16,0.30
2013-6-23,88,76,66,73,68,65,98,79,56,30.05,29.94,15,1,15,0.00
2013-6-24,90,76,66,73,69,65,98,80,54,30.05,29.88,20,1,20,0.15
2013-6-25,88,75,65,76,70,64,98,85,58,29.97,29.78,24,1,24,1.32
2013-6-26,82,71,65,76,69,64,100,94,75,29.87,29.69,18,1,18,0.32
2013-6-27,87,75,67,75,71,67,100,87,62,29.75,29.62,13,1,13,0.00
2013-6-28,85,73,65,70,66,62,99,80,57,29.62,29.52,20,1,20,0.00
2013-6-29,82,68,60,68,64,60,100,88,57,29.68,29.52,15,0,15,0.22
2013-6-30,77,68,60,66,63,60,100,85,65,29.90,29.68,13,1,13,0.18
2013-7-1,74,65,59,63,58,52,94,78,65,30.01,29.89,17,1,17,0.11
2013-7-2,70,64,57,66,61,56,99,92,79,30.03,29.97,13,1,13,0.13
2013-7-3,81,71,64,69,66,64,100,85,64,30.07,29.99,19,2,19,0.00
2013-7-4,84,72,63,66,63,55,99,76,43,30.12,30.03,5,0,0,0.00
2013-7-5,85,74,66,74,69,63,100,84,63,30.08,30.01,5,0,0,0.03
2013-7-6,78,72,67,73,69,66,99,91,78,30.07,29.96,9,0,0,0.03
2013-7-7,81,71,66,73,68,65,100,92,76,30.03,29.95,15,1,15,0.33
2013-7-8,82,73,68,75,71,68,100,93,77,30.03,29.94,15,0,15,0.66
2013-7-9,88,76,72,79,74,71,100,95,73,29.98,29.86,14,0,14,0.11
2013-7-10,83,75,62,79,71,59,99,88,61,29.95,29.74,21,1,21,0.45
2013-7-11,86,70,56,63,60,56,99,73,42,30.05,29.93,11,0,0,0.00
2013-7-12,82,70,56,66,60,56,100,75,49,30.12,30.02,11,0,0,0.00
2013-7-13,84,72,58,70,65,57,99,80,60,30.16,30.09,15,2,15,0.00
2013-7-14,88,76,65,75,70,65,100,82,64,30.20,30.14,11,1,0,0.00
2013-7-15,92,81,70,77,74,69,100,81,62,30.25,30.18,11,0,0,0.00
2013-7-16,95,84,73,77,74,72,95,75,52,30.29,30.21,11,0,0,0.00
2013-7-17,95,83,73,78,75,71,94,77,56,30.27,30.13,13,0,13,0.00
2013-7-18,96,83,73,79,75,72,96,78,54,30.15,29.95,11,0,0,0.00
2013-7-19,92,84,75,78,76,73,95,78,60,29.95,29.74,22,1,22,0.00
2013-7-20,94,81,70,76,72,66,98,75,45,29.88,29.70,14,0,14,0.05
2013-7-21,86,75,64,71,67,63,96,78,55,29.95,29.85,10,1,0,0.00
2013-7-22,81,71,64,72,67,63,99,88,69,29.90,29.73,22,1,22,0.67
2013-7-23,86,72,60,72,66,55,98,81,60,29.85,29.68,24,1,24,0.00
2013-7-24,75,63,50,58,54,48,97,74,53,30.02,29.85,10,0,0,0.00
2013-7-25,81,66,52,62,56,51,100,75,47,30.10,30.01,7,0,0,0.00
2013-7-26,76,67,55,64,60,54,99,78,58,30.07,29.90,15,0,15,0.01
2013-7-27,80,66,54,67,61,52,98,85,52,29.90,29.75,19,1,20,0.01
2013-7-28,66,57,50,56,52,49,95,83,63,30.01,29.84,16,0,16,0.02
2013-7-29,74,62,52,62,56,49,94,81,62,30.17,30.00,11,0,0,0.00
2013-7-30,81,66,51,63,59,50,100,79,54,30.22,30.09,12,0,12,0.00
2013-7-31,72,68,65,68,65,62,99,92,83,30.09,29.90,10,0,0,0.07
2013-8-1,83,68,62,68,64,59,100,89,47,29.94,29.89,16,1,16,0.00
2013-8-2,74,64,54,70,61,53,99,91,80,29.97,29.83,17,0,17,0.28
2013-8-3,85,71,60,69,62,54,100,77,44,30.03,29.91,15,1,15,0.01
2013-8-4,82,66,53,62,56,52,98,73,44,30.15,30.03,11,0,14,0.00
2013-8-5,71,61,51,62,56,50,99,86,53,30.10,29.93,6,0,0,0.00
2013-8-6,77,69,62,71,66,61,98,89,80,29.94,29.86,12,0,12,0.12
2013-8-7,81,72,66,74,70,66,100,93,77,29.88,29.80,12,0,12,0.01
2013-8-8,79,71,66,70,67,64,99,87,73,29.97,29.87,8,0,0,0.00
2013-8-9,87,73,63,66,64,60,96,75,47,29.99,29.91,11,0,0,0.00
2013-8-10,86,72,65,70,65,62,95,79,58,30.08,29.99,9,0,0,0.00
2013-8-11,84,70,56,66,62,56,100,77,50,30.09,30.01,13,0,13,0.00
2013-8-12,84,72,64,70,66,61,98,80,58,30.05,29.81,23,0,23,0.20
2013-8-13,75,64,54,66,57,49,100,78,47,30.06,29.83,16,1,16,0.01
2013-8-14,75,60,46,55,51,44,98,74,47,30.18,30.06,12,0,12,0.00
2013-8-15,79,63,46,59,52,46,100,72,39,30.18,30.08,6,0,0,0.00
2013-8-16,72,56,52,59,54,51,99,92,63,30.16,30.11,1,0,0,0.00
2013-8-17,78,72,56,62,60,55,100,67,46,30.24,30.15,11,1,0,0.00
2013-8-18,84,69,56,67,60,54,100,76,46,30.19,30.08,10,0,0,0.00
2013-8-19,87,72,57,66,62,56,99,74,44,30.11,30.01,13,0,13,0.00
2013-8-20,87,73,60,70,64,59,100,77,50,30.12,30.04,10,0,0,0.00
2013-8-21,85,75,64,72,68,63,96,81,59,30.11,29.97,17,0,17,0.00
2013-8-22,82,72,67,74,69,66,100,92,75,30.05,29.94,19,0,19,0.31
2013-8-23,88,72,60,67,62,54,99,72,35,30.15,30.03,11,0,0,0.01
2013-8-24,83,68,53,66,58,52,100,73,42,30.28,30.15,14,1,14,0.00
2013-8-25,88,73,58,68,63,56,95,73,48,30.28,30.15,10,0,0,0.00
2013-8-26,88,76,66,74,68,61,87,76,60,30.18,29.97,11,0,0,0.00
2013-8-27,89,79,72,78,73,70,95,83,67,29.98,29.82,12,0,12,0.01
2013-8-28,90,80,70,77,73,69,97,79,66,29.97,29.78,14,0,14,0.00
2013-8-29,88,76,64,73,69,64,100,81,55,30.04,29.96,10,0,0,0.00
2013-8-30,90,77,64,74,70,63,100,79,55,29.97,29.71,11,0,0,0.00
2013-8-31,89,78,72,74,72,69,97,82,56,29.81,29.71,9,0,0,0.00
2013-9-1,83,74,68,73,70,67,99,89,69,29.77,29.69,7,0,0,0.00
2013-9-2,84,72,56,70,64,52,100,80,49,29.92,29.71,19,2,19,0.00
2013-9-3,81,66,56,59,55,50,90,69,45,30.02,29.91,17,1,17,0.00
2013-9-4,84,66,51,61,56,50,100,75,43,30.10,30.01,15,0,15,0.00
2013-9-5,83,66,55,58,50,38,97,63,23,30.22,30.08,12,0,12,0.00
2013-9-6,81,64,49,55,52,47,95,68,40,30.25,30.05,12,0,12,0.00
2013-9-7,86,72,60,68,62,52,84,69,52,30.06,29.88,11,0,0,0.00
2013-9-8,75,69,63,67,64,60,98,85,72,30.02,29.90,14,1,14,0.00
2013-9-9,89,73,60,73,65,54,93,78,59,30.02,29.85,14,1,14,0.00
2013-9-10,97,84,73,74,70,66,96,67,40,30.00,29.88,16,0,16,0.00
2013-9-11,95,80,70,73,71,67,100,76,45,30.02,29.89,25,1,25,0.40
2013-9-12,86,71,68,70,67,59,100,90,42,29.94,29.85,14,0,14,0.42
2013-9-29,63,62,62,60,60,60,93,92,91,29.95,29.94,0,0,0,0.02